TIME,DELAY(SENSOR),PRES,OXYGEN,RAWTEMP,T(OPTODE),TCPHASE,FLUOR,BETA(BETA700),BETA(BETA412),BETA(BETA440),CDOM,C(CSC),ED(ED412.20),ED(ED444.00),ED(ED489.60),ED(ED554.30),LU(LU412.10),LU(LU443.90),LU(LU489.70),LU(LU554.70),COMP,TILTX,TILTY,CHECK
1334375749,5809,888.0200195312500000,36.9098281860351560,558.9766235351562000,4.5176091194152830,55.9704017639160160,55,101,102,79,84,15434,0,0,0,0,2147128384,2147775652,2147573312,2147573668,2463,2,13,12650
1334379345,5812,969.2600097656250000,42.4643516540527340,571.5028076171875000,4.1288509368896480,55.2686500549316400,54,99,101,79,84,15433,0,0,0,0,2147127305,2147780653,2147573778,2147569874,3562,2,13,55158
1334382945,5812,994.4400024414062000,42.9492301940918000,572.0540771484375000,4.1117100715637210,55.2023315429687500,55,97,102,79,84,15441,0,0,0,0,2147125229,2147780836,2147573485,2147567442,3390,2,13,7075
1334386545,5809,1001.0700073242188000,42.7479400634765600,572.4166259765625000,4.1004390716552730,55.2386283874511700,54,101,101,78,85,15437,0,0,0,0,2147125897,2147777289,2147573577,2147569042,265,2,13,57654
1334390145,5812,1008.7700195312500000,42.6975097656250000,571.5272216796875000,4.1280941963195800,55.2324981689453100,55,100,101,79,83,15436,0,0,0,0,2147127469,2147777910,2147574491,2147573677,61,2,13,9211
1334393745,5808,1009.5000000000000000,42.1583595275878900,571.7009887695312000,4.1226878166198730,55.3172683715820300,55,105,102,79,84,15393,0,0,0,0,2147123126,2147778358,2147577334,2147569938,235,2,13,33607
1334397345,5809,1011.3900146484375000,42.6805992126464840,572.5062255859375000,4.0976519584655760,55.2491989135742200,55,101,101,78,84,15433,0,0,0,0,2147123675,2147778806,2147577142,2147570358,423,2,13,55665
1334400945,5808,1017.2100219726562000,43.4563217163085940,573.0208740234375000,4.0816478729248050,55.1428298950195300,55,99,102,78,84,15438,0,0,0,0,2147126902,2147778057,2147576091,2147575360,3431,2,13,62497
1334404545,5813,1012.0100097656250000,43.0619087219238300,572.6942138671875000,4.0918078422546390,55.1971282958984400,55,99,102,78,84,15438,0,0,0,0,2147126034,2147779776,2147572690,2147572077,2699,2,13,13476
1334408145,5810,1005.5700073242188000,42.8654899597168000,574.1489868164062000,4.0465550422668460,55.2404098510742200,55,101,102,79,84,15437,0,0,0,0,2147129600,2147781814,2147575113,2147572132,355,2,13,40810
1334411745,5809,1019.5700073242188000,43.0650100708007800,572.6860961914062000,4.0920581817626950,55.1962699890136700,55,99,102,78,83,15434,0,0,0,0,2147126217,2147779812,2147574985,2147572416,188,2,13,60614
1334415345,5809,1020.2700195312500000,41.6164093017578100,572.1384887695312000,4.1090869903564450,55.4004592895507800,55,99,102,78,84,15429,0,0,0,0,2147125028,2147781065,2147572242,2147570276,213,2,13,4759
1334418945,5809,1024.5100097656250000,42.4875984191894500,571.3776855468750000,4.1327400207519530,55.2609786987304700,55,100,101,78,84,15433,0,0,0,0,2147127424,2147779931,2147574710,2147573321,159,2,13,55603
1334422545,5810,1027.6199951171875000,42.2914199829101560,571.0645751953125000,4.1424732208251950,55.2912216186523440,54,100,101,79,84,15431,0,0,0,0,2147125622,2147778102,2147575469,2147571337,339,2,13,25452
1334426145,5810,1028.1899414062500000,42.1954116821289060,570.0690917968750000,4.1734142303466800,55.2907295227050800,55,112,102,78,83,15432,0,0,0,0,2147128521,2147778834,2147573174,2147571638,1067,2,13,50790
1334429745,5809,1018.8599853515625000,41.7127304077148440,571.2072753906250000,4.1380372047424320,55.3777198791503900,55,101,102,78,84,15433,0,0,0,0,2147127707,2147778706,2147574948,2147572525,602,2,13,50699
1334433345,5809,1022.2800292968750000,41.9590797424316400,571.6068115234375000,4.1256198883056640,55.3400611877441400,55,100,101,77,84,15433,0,0,0,0,2147124891,2147778121,2147571995,2147571218,220,2,13,20731
1334436945,5813,1018.6300048828125000,40.7275886535644500,572.2603759765625000,4.1052951812744140,55.5334281921386700,55,100,102,79,83,15433,0,0,0,0,2147125348,2147774802,2147580452,2147571940,3561,2,13,56727
1334440545,5809,1019.9400024414062000,42.5329704284668000,572.8961181640625000,4.0855288505554200,55.2719497680664060,54,98,102,78,83,15431,0,0,0,0,2147123776,2147775296,2147573888,2147574848,360,2,13,43986
1334444145,5809,1023.3099975585938000,42.8050384521484400,572.5632934570312000,4.0958771705627440,55.2327690124511700,54,99,104,79,85,15427,0,0,0,0,2147129042,2147781613,2147572598,2147572489,282,2,13,25539
1334447745,5812,1021.8800048828125000,42.2779006958007800,573.0206909179688000,4.0816540718078610,55.3132781982421900,56,99,102,78,83,15419,0,0,0,0,2147127314,2147776777,2147576822,2147575360,3526,2,13,10024
1334451345,5810,1024.0100097656250000,43.0386886596679700,572.7460937500000000,4.0901927947998050,55.1977195739746100,55,101,101,79,84,15422,0,0,0,0,2147127040,2147776960,2147579766,2147570752,776,2,13,24457
1334454945,5811,1024.5500488281250000,41.8123817443847660,573.4896240234375000,4.0670680999755860,55.3836097717285160,56,100,102,78,85,15425,0,0,0,0,2147126418,2147777334,2147568182,2147572653,3298,2,13,30668
1334458545,5811,1021.5999755859375000,41.2118797302246100,572.7855224609375000,4.0889678001403810,55.4636001586914060,55,100,101,78,84,15424,0,0,0,0,2147123337,2147780352,2147574445,2147568649,10,2,13,7458
1334462145,5810,1022.5900268554688000,41.9645309448242200,573.5706176757812000,4.0645499229431150,55.3613090515136700,54,99,101,78,85,15424,0,0,0,0,2147128512,2147774848,2147575204,2147571748,3379,2,13,33895
1334465745,5812,1026.3900146484375000,41.6497497558593750,573.0167236328125000,4.0817780494689940,55.4056205749511700,55,100,101,79,83,15423,0,0,0,0,2147125924,2147774912,2147578450,2147574134,16,2,13,51625
1334469345,5808,1025.1700439453125000,40.4354515075683600,572.8563232421875000,4.0867671966552730,55.5792808532714840,55,99,102,78,84,15422,0,0,0,0,2147123282,2147772004,2147576740,2147571026,170,2,13,12265
1334472945,5812,1030.4300537109375000,40.5233917236328100,571.8074951171875000,4.1193790435791020,55.5605201721191400,55,96,102,79,84,15417,0,0,0,0,2147125970,2147778285,2147575634,2147571602,58,2,13,28661
1334476545,5809,1036.6300048828125000,41.7939491271972660,571.3638916015625000,4.1331691741943360,55.3673782348632800,54,101,102,79,84,15410,0,0,0,0,2147127817,2147780745,2147573193,2147570157,202,2,13,35548
1334480145,5810,1036.8900146484375000,41.7484703063964840,570.8270874023438000,4.1498551368713380,55.3638610839843750,56,98,101,78,84,15417,0,0,0,0,2147123803,2147779154,2147573110,2147572909,2823,2,13,28783
1334483745,5810,1028.0699462890625000,41.6957702636718750,569.3760986328125000,4.1949481964111330,55.3603897094726560,55,99,102,78,84,15412,0,0,0,0,2147123529,2147774665,2147574061,2147571840,333,2,13,62122
1334487345,5810,1031.5899658203125000,41.4907493591308600,569.2363281250000000,4.1992912292480470,55.3844413757324200,55,101,101,78,84,15414,0,0,0,0,2147125842,2147776832,2147574253,2147575104,192,2,13,61826
1334490945,5808,1024.8399658203125000,41.4621696472168000,569.1414794921875000,4.2022337913513180,55.3913116455078100,54,100,102,80,84,15413,0,0,0,0,2147126738,2147776036,2147573924,2147573019,302,2,13,49722
1334494545,5808,1027.7399902343750000,40.9128112792968750,569.8430175781250000,4.1804409027099610,55.4760093688964840,55,101,101,78,83,15414,0,0,0,0,2147124141,2147773174,2147571364,2147574875,419,2,13,25526
1334498145,5810,1028.9100341796875000,40.9577713012695300,570.0072021484375000,4.1753368377685550,55.4760894775390600,56,98,102,84,84,15413,0,0,0,0,2147123035,2147779840,2147576228,2147574409,3441,2,13,16227
1334501745,5809,1023.1500244140625000,41.3361816406250000,569.5341796875000000,4.1900329589843750,55.4110984802246100,55,101,102,80,84,15412,0,0,0,0,2147122313,2147778953,2147574756,2147575030,1039,2,13,35663
1334505345,5810,1019.9600219726562000,40.9172096252441400,571.4650268554688000,4.1300258636474610,55.4929885864257800,54,100,101,79,83,15411,0,0,0,0,2147125668,2147781787,2147575305,2147573010,232,2,13,63007
1334508945,5810,1019.0599975585938000,41.2745590209960940,571.3713989257812000,4.1329360008239750,55.4435386657714840,55,102,102,78,83,15415,0,0,0,0,2147128621,2147777225,2147571200,2147572973,76,2,13,21720
1334512545,5809,1022.3699951171875000,39.9890594482421900,571.4987182617188000,4.1289811134338380,55.6307106018066400,55,99,103,78,84,15410,0,0,0,0,2147125184,2147779730,2147572717,2147572845,160,2,13,34430
1334516145,5808,1017.5599975585938000,40.5088691711425800,571.6060180664062000,4.1256451606750490,55.5543518066406250,55,99,101,78,84,15412,0,0,0,0,2147124306,2147779227,2147578093,2147573549,104,2,13,43387
1334519456,5811,1022.7999877929688000,40.7822608947753900,571.8062744140625000,4.1194171905517580,55.5189514160156250,55,106,101,80,85,15410,0,0,0,0,2147128859,2147781074,2147572772,2147575259,34,2,13,14205
